This is the latest recevied weather packets stored in our database for station/object WB5LJZ-5. If no packets are shown the sender has not sent any weather packets the latest 10 day(s).
| Time | Temp. | Humidity | Pressure | Rain* | Wind** | Luminosity | Snow |
|---|---|---|---|---|---|---|---|
| 1777450451 | 24.44° C | - | - | 0 mm | 3.58 m/s, 84° | - | - |
| 1777449816 | 24.44° C | - | - | 0 mm | 1.79 m/s, 96° | - | - |
| 1777449180 | 24.44° C | - | - | 0 mm | 2.68 m/s, 76° | - | - |
| 1777448544 | 24.44° C | - | - | 0 mm | 2.68 m/s, 68° | - | - |
| 1777447908 | 24.44° C | - | - | 0 mm | 2.68 m/s, 110° | - | - |
| 1777447272 | 24.44° C | - | - | 0 mm | 3.58 m/s, 98° | - | - |
| 1777446634 | 24.44° C | - | - | 0 mm | 2.68 m/s, 80° | - | - |
| 1777445998 | 25° C | - | - | 0 mm | 3.13 m/s, 100° | - | - |
| 1777445362 | 25° C | - | - | 0 mm | 3.58 m/s, 89° | - | - |
| 1777444726 | 25° C | - | - | 0 mm | 3.58 m/s, 93° | - | - |
| 1777444090 | 25° C | - | - | 0 mm | 2.68 m/s, 83° | - | - |
| 1777443455 | 24.44° C | - | - | 0 mm | 3.13 m/s, 83° | - | - |
| 1777442819 | 24.44° C | - | - | 0 mm | 2.68 m/s, 105° | - | - |
| 1777441547 | 25° C | - | - | 0 mm | 0.89 m/s, 87° | - | - |
| 1777440912 | 25° C | - | - | 0 mm | 3.13 m/s, 114° | - | - |
| 1777440277 | 25° C | - | - | 0 mm | 4.02 m/s, 121° | - | - |
| 1777439640 | 25.56° C | - | - | 0 mm | 3.58 m/s, 114° | - | - |
| 1777439005 | 25.56° C | - | - | 0 mm | 4.02 m/s, 111° | - | - |
| 1777438369 | 25.56° C | - | - | 0 mm | 2.68 m/s, 111° | - | - |
| 1777437734 | 26.11° C | - | - | 0 mm | 4.92 m/s, 136° | - | - |
| 1777437097 | 26.11° C | - | - | 0 mm | 4.92 m/s, 118° | - | - |
| 1777435190 | 26.67° C | - | - | 0 mm | 3.58 m/s, 113° | - | - |
| 1777433918 | 26.67° C | - | - | 0 mm | 6.71 m/s, 115° | - | - |
| 1777433283 | 26.67° C | - | - | 0 mm | 4.92 m/s, 77° | - | - |
| 1777432647 | 27.22° C | - | - | 0 mm | 4.92 m/s, 128° | - | - |
* Rain latest hour (hover to see other rain measurements)
** Current wind speed in m/s (hover to see current wind gust speed)